Flag for U.S.A. Weather past 2 weeks in Oceanside, California, U.S.A.

Now
74 °F

Sunny.


Feels Like: 76 °F
Forecast: 66 / 80 °F
Wind: 7 mph from West

Location: Oceanside Weather Reporting Station

Current Time: Jul 28, 2015 at 6:01:43 PM

Latest Report: Jul 28, 2015 at 4:52 PM


Visibility: 9 mi

Pressure: 29.84 "Hg

Humidity: 67%

Dew point: 62 °F

Location of OceansideLocation

Historic Weather in Oceanside — Graph

°F

Oceanside temperature yesterday

Maximum temperature yesterday: 76 °F (at 12:52 PM)
Minimum temperature yesterday: 62 °F (at 11:52 PM)
Average temperature yesterday: 70 °F

Past Weeks' High & Low Weather Summary

 TemperatureHumidityPressure
High86 °F (Jul 19, 10:52 AM)94% (Jul 20, 4:52 AM)30.06 "Hg (Jul 20, 4:52 AM)
Low60 °F (Jul 28, 12:52 AM)35% (Jul 19, 11:52 AM)29.80 "Hg (Jul 17, 3:52 PM)
Average72 °F75%29.92 "Hg
* Reported Jul 13 4:52 PM — Jul 28 4:52 PM, Oceanside, Weather by CustomWeather, © 2015

Note: Actual official high and low records may vary slightly from our data, if they occured in-between our weather recording intervals... More about our weather records

Advertising

Oceanside weather history for previous 24 hours

 ConditionsComfort  
Time TempWeatherWind HumidityBarometerVisibility
4:52 PM
Tue, Jul 28
74 °FSunny.7 mph67%29.84 "Hg9 mi
3:52 PM75 °FSunny.9 mph64%29.85 "Hg9 mi
2:52 PM75 °FSunny.8 mph62%29.86 "Hg9 mi
1:52 PM76 °FSunny.9 mph60%29.88 "Hg10 mi
12:52 PM76 °FSunny.8 mph62%29.88 "Hg10 mi
11:52 AM77 °FSunny.7 mph58%29.89 "Hg10 mi
10:52 AM76 °FSunny.7 mph60%29.89 "Hg10 mi
9:52 AM74 °FSunny.3 mph64%29.90 "Hg10 mi
8:52 AM70 °FOvercast.No wind73%29.91 "Hg10 mi
7:52 AM66 °FOvercast.No wind81%29.90 "Hg9 mi
6:52 AM63 °FOvercast.No wind87%29.89 "Hg9 mi
6:01 AM61 °FOvercast.No wind90%29.89 "Hg9 mi
4:52 AM61 °FClear.No wind87%29.88 "Hg8 mi
3:52 AM61 °FClear.No wind87%29.87 "Hg9 mi
2:52 AM61 °FClear.No wind87%29.88 "Hg8 mi
1:52 AM62 °FClear.No wind86%29.88 "Hg9 mi
12:52 AM60 °FClear.No wind90%29.89 "Hg9 mi
11:52 PM
Mon, Jul 27
62 °FClear.No wind86%29.90 "Hg10 mi
10:52 PM63 °FClear.No wind87%29.90 "Hg10 mi
9:52 PM65 °FClear.No wind81%29.90 "Hg10 mi
8:52 PM67 °FClear.No wind79%29.89 "Hg10 mi
7:52 PM69 °FSunny.6 mph76%29.88 "Hg10 mi
6:52 PM71 °FSunny.6 mph68%29.87 "Hg10 mi
Weather by CustomWeather, © 2015

See weather overviewHow to use our weather pages